Weather History for Siemreap, Cambodia

Change the Weather History Date:

Thursday, August 8, 2013

  Actual Average Record
Temperature  
Mean Temperature 82 °F -  
Max Temperature 87 °F - - ()
Min Temperature 77 °F - - ()
Cooling Degree Days 17    
Growing Degree Days 32 (Base 50)    
Moisture  
Dew Point 76 °F    
Average Humidity 86    
Maximum Humidity 94    
Minimum Humidity 66    
Precipitation  
Precipitation 0.00 in - - ()
Sea Level Pressure  
Sea Level Pressure 29.72 in    
Wind  
Wind Speed 1 mph ()    
Max Wind Speed 8 mph    
Max Gust Speed -    
Visibility 5.8 miles    
Events Rain , Thunderstorm    
T = Trace of Precipitation, MM = Missing Value Source: Averaged Metar Reports

Daily Weather History Graph

Daily Weather History Graph

Search for Another Location

Airport:

Trip Planner

Search our weather history database for the weather conditions in past years. The results will help you decide how hot, cold, wet, or windy it might be!

Date:

Astronomy

Aug. 08, 2013 Rise Set
Actual Time 5:50 AM ICT 6:29 PM ICT
Civil Twilight 5:28 AM ICT 6:51 PM ICT
Nautical Twilight 5:02 AM ICT 7:17 PM ICT
Astronomical Twilight 4:36 AM ICT 7:44 PM ICT
Moon 6:44 AM ICT (8/8) 7:18 PM ICT (8/8)
Length of Visible Light 13h 23m
Length of Day
12h 38m
New Moon, 2% of the Moon is Illuminated
Aug 8
New Moon
Aug 14
First Quarter
Aug 21
Full
Aug 28
Last Quarter
Sep 5
New

Hourly Weather History & Observations

Time (ICT) Temp. Heat Index Dew Point Humidity Pressure Visibility Wind Dir Wind Speed Gust Speed Precip Events Conditions
12:00 AM 77.0 °F - 75.2 °F 94% 29.74 in 5.6 mi Calm Calm - N/A   Mostly Cloudy
12:30 AM 77.0 °F - 75.2 °F 94% 29.74 in 5.6 mi SE 1.2 mph - N/A   Mostly Cloudy
1:00 AM 77.0 °F - 75.2 °F 94% 29.74 in 5.6 mi Calm Calm - N/A   Mostly Cloudy
7:00 AM 80.6 °F 87.1 °F 77.0 °F 89% 29.74 in 6.2 mi Calm Calm - N/A   Scattered Clouds
9:00 AM 77.0 °F - 73.4 °F 89% 29.77 in 6.2 mi SSE 3.5 mph - N/A   Scattered Clouds
9:30 AM 78.8 °F - 75.2 °F 89% 29.77 in 6.2 mi Calm Calm - N/A   Scattered Clouds
10:00 AM 80.6 °F 87.1 °F 77.0 °F 89% 29.77 in 6.2 mi Calm Calm - N/A   Scattered Clouds
10:30 AM 82.4 °F 90.9 °F 77.0 °F 84% 29.77 in 6.2 mi Calm Calm - N/A   Scattered Clouds
11:00 AM 84.2 °F 94.1 °F 77.0 °F 79% 29.77 in 6.2 mi Calm Calm - N/A   Scattered Clouds
11:30 AM 86.0 °F 96.9 °F 77.0 °F 74% 29.77 in 6.2 mi Calm Calm - N/A   Scattered Clouds
12:00 PM 86.0 °F 95.1 °F 75.2 °F 70% 29.77 in 6.2 mi Calm Calm - N/A   Scattered Clouds
12:30 PM 87.8 °F 99.7 °F 77.0 °F 70% 29.71 in 6.2 mi Calm Calm - N/A   Scattered Clouds
1:30 PM 87.8 °F 97.6 °F 75.2 °F 66% 29.71 in 6.2 mi Calm Calm - N/A   Scattered Clouds
2:00 PM 87.8 °F 97.6 °F 75.2 °F 66% 29.71 in 6.2 mi Calm Calm - N/A   Scattered Clouds
2:30 PM 80.6 °F 86.2 °F 75.2 °F 84% 29.68 in 4.3 mi NNE 8.1 mph - N/A Rain , Thunderstorm Thunderstorms and Rain
3:00 PM 82.4 °F 89.5 °F 75.2 °F 79% 29.65 in 5.6 mi NE 4.6 mph - N/A Rain Rain
3:30 PM 82.4 °F 89.5 °F 75.2 °F 79% 29.65 in 5.6 mi NE 4.6 mph - N/A Rain Light Rain
4:00 PM 78.8 °F - 73.4 °F 83% 29.65 in 5.6 mi SW 4.6 mph - N/A Rain , Thunderstorm Light Thunderstorms and Rain
4:30 PM 77.0 °F - 75.2 °F 94% 29.65 in - North - - N/A Rain , Thunderstorm Light Thunderstorms and Rain
5:00 PM 78.8 °F - 75.2 °F 89% 29.65 in - Calm Calm - N/A Rain Light Rain
5:30 PM 78.8 °F - 75.2 °F 89% 29.65 in 5.6 mi Calm Calm - N/A Rain Light Rain
6:00 PM 78.8 °F - 75.2 °F 89% 29.68 in 5.6 mi Calm Calm - N/A Rain Light Rain
6:30 PM 78.8 °F - 77.0 °F 94% 29.68 in 5.6 mi Calm Calm - N/A   Mostly Cloudy
7:00 PM 80.6 °F 87.1 °F 77.0 °F 89% 29.68 in 5.6 mi Calm Calm - N/A   Mostly Cloudy
7:30 PM 80.6 °F 87.1 °F 77.0 °F 89% 29.71 in 5.6 mi Calm Calm - N/A   Mostly Cloudy
8:00 PM 78.8 °F - 75.2 °F 89% 29.71 in 5.6 mi Calm Calm - N/A   Mostly Cloudy
8:30 PM 80.6 °F 87.1 °F 77.0 °F 89% 29.74 in 5.6 mi Calm Calm - N/A   Mostly Cloudy
9:00 PM 80.6 °F 87.1 °F 77.0 °F 89% 29.74 in 5.6 mi Calm Calm - N/A   Mostly Cloudy
9:30 PM 80.6 °F 87.1 °F 77.0 °F 89% 29.77 in 5.6 mi Calm Calm - N/A   Mostly Cloudy
10:00 PM 80.6 °F 87.1 °F 77.0 °F 89% 29.77 in 5.6 mi Calm Calm - N/A   Mostly Cloudy
10:30 PM 80.6 °F 87.1 °F 77.0 °F 89% 29.77 in 5.6 mi Calm Calm - N/A   Mostly Cloudy
11:00 PM 80.6 °F 87.1 °F 77.0 °F 89% 29.77 in 5.6 mi Calm Calm - N/A   Mostly Cloudy
11:30 PM 80.6 °F 88.1 °F 78.8 °F 94% 29.77 in 5.6 mi Calm Calm - N/A   Mostly Cloudy